Regional Weather Roundup
Issued by NWS Newport/Morehead, NC

Current Version | Previous Version | Graphics & Text | Print | Product List | Glossary Off
Versions: 1 2 3 4 5 6 7 8 9 10 11 12 13 14 15 16 17 18 19 20 21 22 23 24 25 26 27 28 29 30 31 32 33 34 35 36 37 38 39 40 41 42 43 44 45 46 47 48 49

000
ASUS42 KMHX 211222
RWRMHX
WEATHER ROUNDUP FOR EASTERN NORTH CAROLINA
NATIONAL WEATHER SERVICE NEWPORT/MOREHEAD CITY NC
800 AM EDT MON APR 21 2014

NOTE: "FAIR" INDICATES FEW OR NO CLOUDS BELOW 12,000 FEET
WITH NO SIGNIFICANT WEATHER AND/OR OBSTRUCTIONS TO VISIBILITY

NCZ015>017-031-032-045>047-102-103-211300-
NORTH COAST

CITY           SKY/WX    TMP DP  RH WIND       PRES   REMARKS
EDENTON        CLOUDY    51  48  87 N10G16    30.11S
ELIZABETH CITY CLOUDY    50  46  86 N16       30.11S
KITTY HAWK     FOG       47  47  99 N12G23    30.06S VSB 1/2
MANTEO         CLOUDY    48  47  99 N18G28    30.07S FOG

$$

NCZ045>047-081-094-103-104-211300-
CENTRAL COAST

CITY           SKY/WX    TMP DP  RH WIND       PRES   REMARKS
FRISCO         LGT RAIN  50  50 100 N12G25    30.01S FOG
SWANQUARTER    NOT AVBL

$$

NCZ095-097-098-100-101-211300-
SOUTHERN COAST

CITY           SKY/WX    TMP DP  RH WIND       PRES   REMARKS
BEAUFORT       CLOUDY    52  51  97 N18       30.02R FOG
CEDAR ISLAND   NOT AVBL
JACKSONVILLE   CLOUDY    50  47  89 N15       30.07R
NEWPORT          N/A     54  50  87 N12         N/A
PINEY ISLAND   CLOUDY    55  53  93 N22G28    30.03R
WILMINGTON     CLOUDY    52  45  77 N14       30.06R


$$

NCZ011>013-027>030-043-044-078>080-089-090>093-098-211300-
COASTAL PLAIN

CITY           SKY/WX    TMP DP  RH WIND       PRES   REMARKS
AHOSKIE        SUNNY     44  38  78 N7        30.16F
CLINTON        MOSUNNY   49  42  79 N7        30.13S
ELIZABETHTOWN  SUNNY     49  42  76 N6        30.11S
GOLDSBORO      CLOUDY    48  41  76 N10       30.11S
GREENVILLE     CLOUDY    48  43  81 N9        30.14S
HAVELOCK       CLOUDY    53  48  83 N17       30.06R
KENANSVILLE    CLOUDY    49  41  74 N9G16     30.12S
KINSTON        CLOUDY    48  43  81 N12       30.12S
NEW BERN       CLOUDY    53  47  79 N13G20    30.09R
RICHLANDS      CLOUDY    50  50 100 N9        30.09S
ROANOKE RAPIDS NOT AVBL
ROCKY MOUNT    MOSUNNY   48  38  68 N10       30.15F
WASHINGTON     CLOUDY    50  46  85 N13       30.11S
WHITEVILLE     SUNNY     51  43  74 N3        30.10R

$$

AMZ130-135-150-152-154-156-158-170-250-252-270-ANZ085-086-088-633-658-670-211300-
MARINE OBSERVATIONS

STATION/POSITION TIME  TEMP    WIND        PRES    WAVE   SWELL
                       AIR SEA DIR/SP/G            HT/PER HT/PER
                 (UTC) (F)     (DEG/KT/KT) (MB)    (FT/S) (FT/S)
CHESAPEAKE LIGHT 1200   44      20/ 22/ 26 1020.3
BUOY 44014       1200   49 48   10/ 19/ 25 1017.3   12/10  10/10
DUCK             1200   47 49   10/ 23/ 27 1017.5
2E DUCK          1200      48                N/A     8/11   3/11
OREGON INLET     1200   49 50  350/ 16/ 21 1017.3
BUOY 44095       1200      48                N/A    11/11   7/11
HATTERAS CG      1200   53 54   10/ 18/ 25 1016.0
DIAMOND BUOY     1200   58 74  360/ 27/ 35 1013.8   12/11   8/11
CAPE LOOKOUT     1200   53     360/ 21/ 25 1015.9
BEAUFORT LAB     1200   53 56  360/ 16/ 21 1016.0
30 SE NEW RIVER  1200   56 66  360/ 27/ 31 1015.4    9/ 6   3/11
5 SE WRIGHTSVILL 1200   53 58  350/ 21/ 25 1016.5
FRYING PAN BUOY  1200   57 67   10/ 25/ 31 1015.0    9/ 8   5/10
BUOY 41001       NOT AVBL
BUOY 41002       NOT AVBL
BUOY 41004       NOT AVBL

$$



USA.gov is the U.S. government's official web portal to all federal, state and local government web resources and services.